• In Kazakhstan
  • List of Countries
  • For 7 days
  • Water Temperature
  • Weather Map
  • News
  • Weather Widgets
  • user-avatar
    Login

    Hourly Weather Sofia

    Today, 14 October, Monday

    Time Temperature Precipitation Wind Pressure Humidity
    00:00 +14°C° 0 mm 0 mps 715 mmHg 68%
    01:00 +14°C° 0 mm 0 mps 715 mmHg 69%
    02:00 +15°C° 0 mm 1 mps 715 mmHg 71%
    03:00 +13°C° 0 mm 0 mps 715 mmHg 72%
    04:00 +13°C° 0 mm 0 mps 715 mmHg 73%
    05:00 +13°C° 0 mm 0 mps 714 mmHg 73%
    06:00 +14°C° 0 mm 0 mps 715 mmHg 70%
    07:00 +14°C° 0 mm 0 mps 715 mmHg 67%
    08:00 +15°C° 0 mm 0 mps 716 mmHg 64%
    09:00 +18°C° 0 mm 0 mps 716 mmHg 56%
    10:00 +20°C° 0 mm 0 mps 716 mmHg 49%
    11:00 +23°C° 0 mm 0 mps 716 mmHg 41%
    12:00 +26°C° 0 mm 1 mps 716 mmHg 38%
    13:00 +27°C° 0 mm 1 mps 715 mmHg 34%
    14:00 +27°C° 0 mm 1 mps 715 mmHg 31%
    15:00 +26°C° 0 mm 1 mps 715 mmHg 34%
    16:00 +25°C° 0 mm 1 mps 714 mmHg 37%
    17:00 +24°C° 0 mm 1 mps 714 mmHg 41%
    18:00 +22°C° 0 mm 1 mps 714 mmHg 44%
    19:00 +20°C° 0 mm 1 mps 714 mmHg 48%
    20:00 +19°C° 0 mm 1 mps 714 mmHg 51%
    21:00 +18°C° 0 mm 1 mps 714 mmHg 52%
    22:00 +16°C° 0 mm 1 mps 714 mmHg 53%
    23:00 +16°C° 0 mm 1 mps 714 mmHg 54%

    Tomorrow, 15 October, Tuesday

    Time Temperature Precipitation Wind Pressure Humidity
    00:00 +15°C° 0 mm 1 mps 713 mmHg 55%
    01:00 +15°C° 0 mm 1 mps 713 mmHg 56%
    02:00 +14°C° 0 mm 0 mps 713 mmHg 56%
    03:00 +13°C° 0 mm 0 mps 713 mmHg 58%
    04:00 +13°C° 0 mm 0 mps 713 mmHg 59%
    05:00 +13°C° 0 mm 0 mps 712 mmHg 60%
    06:00 +13°C° 0 mm 0 mps 713 mmHg 59%
    07:00 +14°C° 0 mm 0 mps 713 mmHg 57%
    08:00 +15°C° 0 mm 0 mps 713 mmHg 55%
    09:00 +18°C° 0 mm 0 mps 713 mmHg 49%
    10:00 +20°C° 0 mm 0 mps 713 mmHg 42%
    11:00 +25°C° 0 mm 1 mps 713 mmHg 36%
    12:00 +26°C° 0 mm 1 mps 713 mmHg 32%
    13:00 +27°C° 0 mm 1 mps 713 mmHg 29%
    14:00 +28°C° 0 mm 1 mps 713 mmHg 26%
    15:00 +26°C° 0 mm 1 mps 712 mmHg 29%
    16:00 +25°C° 0 mm 1 mps 712 mmHg 32%
    17:00 +24°C° 0 mm 1 mps 711 mmHg 36%
    18:00 +22°C° 0 mm 1 mps 711 mmHg 39%
    19:00 +20°C° 0 mm 1 mps 711 mmHg 43%
    20:00 +18°C° 0 mm 1 mps 711 mmHg 47%
    21:00 +18°C° 0 mm 1 mps 711 mmHg 48%
    22:00 +16°C° 0 mm 1 mps 711 mmHg 49%
    23:00 +16°C° 0 mm 1 mps 711 mmHg 50%

    Day after tomorrow, 16 October, Wednesday

    Time Temperature Precipitation Wind Pressure Humidity
    00:00 +15°C° 0 mm 1 mps 711 mmHg 51%
    01:00 +15°C° 0 mm 1 mps 711 mmHg 52%
    02:00 +13°C° 0 mm 0 mps 711 mmHg 54%
    03:00 +13°C° 0 mm 0 mps 711 mmHg 55%
    04:00 +13°C° 0 mm 0 mps 711 mmHg 56%
    05:00 +12°C° 0 mm 0 mps 711 mmHg 57%
    06:00 +13°C° 0 mm 0 mps 711 mmHg 55%
    07:00 +14°C° 0 mm 0 mps 711 mmHg 54%
    08:00 +15°C° 0 mm 0 mps 712 mmHg 52%
    09:00 +18°C° 0 mm 0 mps 712 mmHg 45%
    10:00 +20°C° 0 mm 0 mps 712 mmHg 39%
    11:00 +23°C° 0 mm 0 mps 713 mmHg 32%
    12:00 +23°C° 0 mm 0 mps 712 mmHg 30%
    13:00 +26°C° 0 mm 1 mps 712 mmHg 28%
    14:00 +27°C° 0 mm 1 mps 712 mmHg 26%
    15:00 +26°C° 0 mm 1 mps 712 mmHg 30%
    16:00 +25°C° 0 mm 1 mps 712 mmHg 33%
    17:00 +23°C° 0 mm 1 mps 711 mmHg 37%
    18:00 +21°C° 0 mm 1 mps 711 mmHg 41%
    19:00 +20°C° 0 mm 1 mps 711 mmHg 46%
    20:00 +18°C° 0 mm 1 mps 712 mmHg 50%
    21:00 +16°C° 0 mm 1 mps 712 mmHg 51%
    22:00 +16°C° 0 mm 1 mps 712 mmHg 53%
    23:00 +14°C° 0 mm 0 mps 712 mmHg 54%

    17 October, Thursday

    Time Temperature Precipitation Wind Pressure Humidity
    00:00 +14°C° 0 mm 0 mps 712 mmHg 55%
    01:00 +14°C° 0 mm 0 mps 712 mmHg 56%
    02:00 +13°C° 0 mm 0 mps 712 mmHg 57%
    03:00 +13°C° 0 mm 0 mps 712 mmHg 57%
    04:00 +13°C° 0 mm 0 mps 712 mmHg 58%
    05:00 +12°C° 0 mm 0 mps 712 mmHg 59%
    06:00 +13°C° 0 mm 0 mps 712 mmHg 57%
    07:00 +14°C° 0 mm 0 mps 712 mmHg 55%
    08:00 +15°C° 0 mm 0 mps 712 mmHg 53%
    09:00 +17°C° 0 mm 0 mps 713 mmHg 46%
    10:00 +20°C° 0 mm 0 mps 713 mmHg 40%
    11:00 +22°C° 0 mm 0 mps 713 mmHg 33%
    12:00 +23°C° 0 mm 0 mps 713 mmHg 31%
    13:00 +26°C° 0 mm 1 mps 713 mmHg 29%
    14:00 +26°C° 0 mm 1 mps 713 mmHg 27%
    15:00 +25°C° 0 mm 1 mps 712 mmHg 30%
    16:00 +24°C° 0 mm 1 mps 712 mmHg 34%
    17:00 +23°C° 0 mm 1 mps 712 mmHg 37%
    18:00 +21°C° 0 mm 1 mps 712 mmHg 41%
    19:00 +20°C° 0 mm 1 mps 712 mmHg 45%
    20:00 +18°C° 0 mm 1 mps 712 mmHg 49%
    21:00 +18°C° 0 mm 1 mps 712 mmHg 50%
    22:00 +16°C° 0 mm 1 mps 712 mmHg 52%
    23:00 +15°C° 0 mm 0 mps 712 mmHg 53%

    18 October, Friday

    Time Temperature Precipitation Wind Pressure Humidity
    00:00 +14°C° 0 mm 0 mps 712 mmHg 54%
    01:00 +14°C° 0 mm 0 mps 712 mmHg 55%
    02:00 +13°C° 0 mm 0 mps 712 mmHg 56%
    03:00 +13°C° 0 mm 0 mps 712 mmHg 57%
    04:00 +13°C° 0 mm 0 mps 712 mmHg 58%
    05:00 +12°C° 0 mm 0 mps 712 mmHg 58%
    06:00 +13°C° 0 mm 0 mps 713 mmHg 57%
    07:00 +14°C° 0 mm 0 mps 713 mmHg 55%
    08:00 +15°C° 0 mm 0 mps 713 mmHg 53%
    09:00 +17°C° 0 mm 0 mps 713 mmHg 47%
    10:00 +20°C° 0 mm 0 mps 714 mmHg 40%
    11:00 +22°C° 0 mm 0 mps 714 mmHg 34%
    12:00 +25°C° 0 mm 1 mps 714 mmHg 32%
    13:00 +25°C° 0 mm 1 mps 713 mmHg 30%
    14:00 +26°C° 0 mm 1 mps 713 mmHg 28%
    15:00 +25°C° 0 mm 1 mps 713 mmHg 32%
    16:00 +24°C° 0 mm 2 mps 712 mmHg 36%
    17:00 +23°C° 0 mm 2 mps 712 mmHg 40%
    18:00 +21°C° 0 mm 1 mps 712 mmHg 44%
    19:00 +19°C° 0 mm 1 mps 712 mmHg 47%
    20:00 +18°C° 0 mm 1 mps 712 mmHg 51%
    21:00 +16°C° 0 mm 1 mps 712 mmHg 53%
    22:00 +16°C° 0 mm 1 mps 712 mmHg 54%
    23:00 +15°C° 0 mm 1 mps 712 mmHg 55%

    19 October, Saturday

    Time Temperature Precipitation Wind Pressure Humidity
    00:00 +15°C° 0 mm 1 mps 712 mmHg 57%
    01:00 +14°C° 0 mm 1 mps 712 mmHg 58%
    02:00 +13°C° 0 mm 0 mps 712 mmHg 60%
    03:00 +13°C° 0 mm 0 mps 712 mmHg 61%
    04:00 +12°C° 0 mm 0 mps 712 mmHg 62%
    05:00 +12°C° 0 mm 0 mps 712 mmHg 63%
    06:00 +13°C° 0 mm 0 mps 712 mmHg 61%
    07:00 +14°C° 0 mm 0 mps 713 mmHg 59%
    08:00 +14°C° 0 mm 0 mps 713 mmHg 57%
    09:00 +17°C° 0 mm 0 mps 713 mmHg 51%
    10:00 +21°C° 0 mm 1 mps 713 mmHg 44%
    11:00 +23°C° 0 mm 1 mps 714 mmHg 37%
    12:00 +24°C° 0 mm 1 mps 713 mmHg 35%
    13:00 +25°C° 0 mm 1 mps 713 mmHg 33%
    14:00 +26°C° 0 mm 1 mps 713 mmHg 31%
    15:00 +25°C° 0 mm 1 mps 713 mmHg 35%
    16:00 +23°C° 0 mm 1 mps 712 mmHg 39%
    17:00 +22°C° 0 mm 1 mps 712 mmHg 42%
    18:00 +21°C° 0 mm 1 mps 712 mmHg 46%
    19:00 +19°C° 0 mm 1 mps 712 mmHg 51%
    20:00 +16°C° 0 mm 1 mps 712 mmHg 55%
    21:00 +16°C° 0 mm 1 mps 712 mmHg 56%
    22:00 +15°C° 0 mm 1 mps 712 mmHg 58%
    23:00 +15°C° 0 mm 1 mps 713 mmHg 59%
    Show more